| time (UTC) | temp C | wind direction | speed KPH | gust KPH | rain 1hr cm | rain 24hr cm | rain mn cm | humidity % | barometer mb |
| 20260831124057 | 20 | 232 | 9.7 | 22.5 | 0.03 | 0.58 | 0.61 | 85 | 1006.1 |
| 20260831122608 | 18 | 212 | 9.7 | 33.8 | 0.23 | 0.58 | 0.61 | 84 | 1006.1 |
| 20260831121607 | 19 | 204 | 9.7 | 20.9 | 0.23 | 0.58 | 0.58 | 86 | 1006.0 |
| 20260831120605 | 20 | 194 | 11.3 | 25.7 | 0.23 | 0.58 | 0.58 | 85 | 1005.9 |
| 20260831115606 | 20 | 201 | 4.8 | 12.9 | 0.23 | 0.36 | 0.58 | 89 | 1006.1 |
| 20260831115044 | 19 | 244 | 6.4 | 14.5 | 0.23 | 0.36 | 0.58 | 83 | 1006.3 |
| 20260831113608 | 18 | 234 | 4.8 | 25.7 | 0.23 | 0.36 | 0.58 | 86 | 1006.3 |
| 20260831112610 | 21 | 196 | 19.3 | 41.8 | 0.03 | 0.36 | 0.38 | 76 | 1006.4 |
| 20260831111607 | 21 | 209 | 17.7 | 30.6 | 0.03 | 0.36 | 0.36 | 73 | 1005.9 |
| 20260831110605 | 22 | 209 | 17.7 | 30.6 | 0.03 | 0.36 | 0.36 | 68 | 1006.0 |
| 20260831104605 | 20 | 167 | 17.7 | 37.0 | 0.03 | 0.33 | 0.36 | 79 | 1006.2 |
| 20260831102556 | 20 | 244 | 11.3 | 22.5 | 0.03 | 0.33 | 0.36 | 82 | 1006.5 |
| 20260831101557 | 20 | 204 | 12.9 | 20.9 | 0.00 | 0.33 | 0.33 | 75 | 1006.5 |
| 20260831100552 | 21 | 226 | 14.5 | 32.2 | 0.00 | 0.33 | 0.33 | 74 | 1006.4 |
| 20260831095547 | 20 | 223 | 8.0 | 20.9 | 0.00 | 0.33 | 0.33 | 79 | 1006.3 |
| 20260831094544 | 20 | 186 | 11.3 | 17.7 | 0.00 | 0.33 | 0.33 | 79 | 1006.5 |
| 20260831093544 | 20 | 217 | 8.0 | 17.7 | 0.00 | 0.33 | 0.33 | 79 | 1006.6 |
| 20260831092543 | 19 | 205 | 12.9 | 27.4 | 0.00 | 0.33 | 0.33 | 81 | 1006.6 |
| 20260831091541 | 19 | 253 | 6.4 | 16.1 | 0.00 | 0.33 | 0.33 | 82 | 1006.7 |
| 20260831090537 | 19 | 213 | 12.9 | 17.7 | 0.00 | 0.36 | 0.33 | 83 | 1006.8 |
| 20260831085537 | 18 | 207 | 11.3 | 17.7 | 0.00 | 0.36 | 0.33 | 83 | 1006.7 |
| 20260831084533 | 19 | 193 | 11.3 | 22.5 | 0.00 | 0.38 | 0.33 | 83 | 1006.9 |
| 20260831083534 | 19 | 207 | 9.7 | 20.9 | 0.00 | 0.38 | 0.33 | 84 | 1006.7 |
| 20260831082532 | 18 | 225 | 11.3 | 25.7 | 0.00 | 0.38 | 0.33 | 86 | 1006.8 |
| 20260831082020 | 18 | 206 | 8.0 | 19.3 | 0.00 | 0.38 | 0.33 | 87 | 1006.8 |
| 20260831075523 | 18 | 217 | 9.7 | 19.3 | 0.00 | 0.38 | 0.33 | 89 | 1006.7 |
| 20260831074957 | 17 | 207 | 9.7 | 22.5 | 0.00 | 0.38 | 0.33 | 90 | 1006.6 |
| 20260831073522 | 17 | 219 | 8.0 | 27.4 | 0.00 | 0.38 | 0.33 | 90 | 1006.6 |
| 20260831072517 | 17 | 203 | 11.3 | 22.5 | 0.00 | 0.38 | 0.33 | 91 | 1006.5 |
| 20260831071519 | 17 | 174 | 9.7 | 22.5 | 0.00 | 0.38 | 0.33 | 92 | 1006.4 |
| 20260831070507 | 17 | 167 | 9.7 | 20.9 | 0.00 | 0.38 | 0.33 | 93 | 1006.5 |
| 20260831065506 | 16 | 232 | 12.9 | 22.5 | 0.00 | 0.43 | 0.33 | 94 | 1006.6 |
| 20260831064946 | 16 | 204 | 9.7 | 17.7 | 0.00 | 0.46 | 0.33 | 96 | 1006.6 |
| 20260831063507 | 16 | 167 | 11.3 | 19.3 | 0.00 | 0.46 | 0.33 | 97 | 1006.6 |
| 20260831062507 | 16 | 173 | 9.7 | 16.1 | 0.13 | 0.48 | 0.33 | 97 | 1006.5 |
| 20260831061507 | 16 | 188 | 4.8 | 8.0 | 0.15 | 0.51 | 0.33 | 97 | 1006.8 |
| 20260831060519 | 16 | 187 | 3.2 | 14.5 | 0.15 | 0.51 | 0.33 | 97 | 1006.9 |
| 20260831055507 | 16 | 197 | 3.2 | 11.3 | 0.15 | 0.38 | 0.33 | 97 | 1006.9 |
| 20260831054506 | 16 | 200 | 0.0 | 4.8 | 0.15 | 0.43 | 0.33 | 97 | 1006.8 |
| 20260831053514 | 15 | 202 | 6.4 | 12.9 | 0.15 | 0.46 | 0.33 | 97 | 1006.8 |
| 20260831052507 | 15 | 190 | 8.0 | 14.5 | 0.05 | 0.48 | 0.20 | 97 | 1007.0 |
| 20260831051506 | 15 | 201 | 4.8 | 11.3 | 0.00 | 0.51 | 0.18 | 97 | 1007.0 |
| 20260831051021 | 15 | 186 | 3.2 | 11.3 | 0.00 | 0.61 | 0.18 | 97 | 1007.0 |
| 20260831045508 | 15 | 157 | 4.8 | 11.3 | 0.00 | 0.61 | 0.18 | 97 | 1007.2 |
| 20260831044506 | 16 | 181 | 4.8 | 11.3 | 0.00 | 0.61 | 0.18 | 97 | 1007.2 |
| 20260831043519 | 16 | 180 | 3.2 | 8.0 | 0.00 | 0.61 | 0.18 | 97 | 1007.2 |
| 20260831042507 | 16 | 187 | 4.8 | 11.3 | 0.00 | 0.61 | 0.18 | 97 | 1007.4 |
| 20260831041508 | 16 | 186 | 3.2 | 11.3 | 0.00 | 0.61 | 0.18 | 97 | 1007.4 |
| 20260831040507 | 16 | 192 | 1.6 | 11.3 | 0.00 | 0.61 | 0.18 | 97 | 1007.5 |
| 20260831035507 | 16 | 182 | 4.8 | 8.0 | 0.00 | 0.61 | 0.18 | 97 | 1007.6 |
| 20260831034507 | 16 | 199 | 4.8 | 12.9 | 0.00 | 0.61 | 0.18 | 97 | 1007.6 |
| 20260831033507 | 16 | 201 | 8.0 | 17.7 | 0.00 | 0.61 | 0.18 | 97 | 1007.6 |
| 20260831032509 | 16 | 208 | 8.0 | 14.5 | 0.00 | 0.64 | 0.18 | 98 | 1007.7 |
| 20260831031945 | 16 | 173 | 6.4 | 11.3 | 0.00 | 0.66 | 0.18 | 98 | 1007.7 |
| 20260831030507 | 16 | 198 | 4.8 | 11.3 | 0.00 | 0.66 | 0.18 | 98 | 1007.9 |
| 20260831025511 | 16 | 210 | 0.0 | 8.0 | 0.00 | 0.66 | 0.18 | 98 | 1008.0 |
| 20260831024506 | 16 | 188 | 6.4 | 12.9 | 0.00 | 0.66 | 0.18 | 97 | 1008.1 |
| 20260831023507 | 16 | 175 | 4.8 | 12.9 | 0.00 | 0.66 | 0.18 | 97 | 1008.1 |
| 20260831022506 | 16 | 202 | 1.6 | 6.4 | 0.00 | 0.66 | 0.18 | 97 | 1008.2 |
| 20260831021506 | 16 | 186 | 3.2 | 8.0 | 0.00 | 0.66 | 0.18 | 97 | 1008.3 |
| 20260831020508 | 16 | 177 | 4.8 | 12.9 | 0.00 | 0.66 | 0.18 | 97 | 1008.5 |
| 20260831015509 | 16 | 179 | 6.4 | 12.9 | 0.00 | 0.66 | 0.18 | 97 | 1008.5 |
| 20260831014506 | 16 | 215 | 3.2 | 6.4 | 0.05 | 0.66 | 0.18 | 97 | 1008.6 |
| 20260831013509 | 16 | 216 | 0.0 | 0.0 | 0.13 | 0.66 | 0.18 | 97 | 1008.6 |
| 20260831012957 | 16 | 216 | 0.0 | 0.0 | 0.15 | 0.66 | 0.18 | 97 | 1008.5 |
| 20260831011507 | 16 | 216 | 0.0 | 0.0 | 0.18 | 0.66 | 0.18 | 97 | 1008.7 |
| 20260831010508 | 16 | 216 | 0.0 | 0.0 | 0.18 | 0.66 | 0.18 | 96 | 1008.8 |
| 20260831005506 | 16 | 216 | 1.6 | 3.2 | 0.18 | 0.48 | 0.18 | 96 | 1009.1 |
| 20260831004507 | 16 | 215 | 4.8 | 6.4 | 0.13 | 0.48 | 0.10 | 96 | 1009.1 |
| 20260831003506 | 16 | 211 | 3.2 | 11.3 | 0.05 | 0.51 | 0.05 | 96 | 1009.2 |
| 20260831002942 | 16 | 188 | 3.2 | 11.3 | 0.03 | 0.51 | 0.03 | 96 | 1009.3 |
| 20260831001507 | 16 | 200 | 4.8 | 8.0 | 0.00 | 0.51 | 0.00 | 95 | 1009.3 |
| 20260831000508 | 16 | 208 | 4.8 | 11.3 | 0.00 | 0.51 | 0.00 | 95 | 1009.4 |
| 20260830235506 | 16 | 177 | 4.8 | 12.9 | 0.00 | 0.51 | 0.00 | 95 | 1009.4 |
| 20260830234506 | 16 | 182 | 3.2 | 8.0 | 0.00 | 0.51 | 0.00 | 95 | 1009.3 |
| 20260830233946 | 16 | 201 | 3.2 | 8.0 | 0.00 | 0.51 | 0.00 | 94 | 1009.4 |
| 20260830232518 | 16 | 200 | 4.8 | 8.0 | 0.00 | 0.51 | 0.00 | 94 | 1009.5 |
| 20260830231507 | 16 | 187 | 4.8 | 8.0 | 0.00 | 0.51 | 0.00 | 94 | 1009.5 |
| 20260830230506 | 16 | 177 | 4.8 | 11.3 | 0.00 | 0.53 | 0.00 | 94 | 1009.4 |
| 20260830224957 | 16 | 196 | 3.2 | 6.4 | 0.00 | 0.53 | 0.00 | 94 | 1009.5 |
| 20260830223509 | 16 | 203 | 3.2 | 6.4 | 0.00 | 0.53 | 0.00 | 94 | 1009.6 |
| 20260830222516 | 16 | 205 | 1.6 | 6.4 | 0.00 | 0.53 | 0.00 | 94 | 1009.8 |
| 20260830221506 | 16 | 178 | 3.2 | 8.0 | 0.00 | 0.53 | 0.00 | 94 | 1009.8 |
| 20260830220519 | 16 | 184 | 4.8 | 8.0 | 0.00 | 0.53 | 0.00 | 94 | 1009.8 |
| 20260830215516 | 16 | 190 | 3.2 | 4.8 | 0.00 | 0.53 | 0.53 | 94 | 1009.9 |
| 20260830214507 | 16 | 200 | 3.2 | 6.4 | 0.00 | 0.53 | 0.53 | 94 | 1010.0 |
| 20260830213512 | 16 | 203 | 1.6 | 6.4 | 0.00 | 0.53 | 0.53 | 95 | 1010.0 |
| 20260830212507 | 16 | 183 | 3.2 | 6.4 | 0.00 | 0.53 | 0.53 | 95 | 1009.9 |
| 20260830211509 | 16 | 183 | 0.0 | 3.2 | 0.00 | 0.53 | 0.53 | 95 | 1009.8 |
| 20260830210509 | 16 | 183 | 0.0 | 4.8 | 0.00 | 0.53 | 0.53 | 95 | 1009.9 |
| 20260830205507 | 15 | 182 | 0.0 | 3.2 | 0.00 | 0.53 | 0.53 | 95 | 1009.9 |
| 20260830204506 | 16 | 182 | 0.0 | 0.0 | 0.00 | 0.53 | 0.53 | 95 | 1010.0 |
| 20260830203507 | 16 | 182 | 0.0 | 4.8 | 0.00 | 0.56 | 0.53 | 94 | 1010.1 |
| 20260830202507 | 16 | 181 | 3.2 | 6.4 | 0.00 | 0.61 | 0.53 | 94 | 1010.1 |
| 20260830201956 | 16 | 176 | 1.6 | 8.0 | 0.00 | 0.74 | 0.53 | 94 | 1010.0 |
| 20260830200507 | 16 | 173 | 3.2 | 11.3 | 0.00 | 0.74 | 0.53 | 94 | 1010.0 |
| 20260830195506 | 16 | 217 | 4.8 | 6.4 | 0.00 | 0.74 | 0.53 | 93 | 1010.0 |
| 20260830194509 | 16 | 217 | 4.8 | 6.4 | 0.00 | 0.74 | 0.53 | 93 | 1010.0 |
| 20260830193520 | 16 | 221 | 3.2 | 8.0 | 0.00 | 0.74 | 0.53 | 92 | 1009.9 |
| 20260830192526 | 16 | 228 | 0.0 | 4.8 | 0.00 | 0.74 | 0.53 | 92 | 1010.0 |
| 20260830191519 | 16 | 228 | 3.2 | 8.0 | 0.00 | 0.74 | 0.53 | 92 | 1009.8 |
| 20260830190520 | 16 | 227 | 3.2 | 6.4 | 0.00 | 0.74 | 0.53 | 91 | 1009.8 |
| 20260830185508 | 16 | 227 | 4.8 | 8.0 | 0.00 | 0.74 | 0.53 | 91 | 1009.7 |
| 20260830184506 | 16 | 228 | 4.8 | 6.4 | 0.00 | 0.74 | 0.53 | 90 | 1009.7 |
| 20260830183507 | 17 | 227 | 1.6 | 8.0 | 0.00 | 0.74 | 0.53 | 89 | 1009.6 |
| 20260830182509 | 17 | 227 | 3.2 | 6.4 | 0.00 | 0.74 | 0.53 | 88 | 1009.6 |
| 20260830181517 | 17 | 227 | 3.2 | 12.9 | 0.00 | 0.74 | 0.53 | 88 | 1009.6 |
| 20260830180507 | 17 | 258 | 3.2 | 11.3 | 0.00 | 0.74 | 0.53 | 87 | 1009.5 |
| 20260830175509 | 17 | 256 | 4.8 | 12.9 | 0.00 | 0.74 | 0.53 | 86 | 1009.3 |
| 20260830174507 | 18 | 255 | 9.7 | 17.7 | 0.00 | 0.74 | 0.53 | 84 | 1009.3 |
| 20260830173507 | 18 | 259 | 9.7 | 19.3 | 0.00 | 0.74 | 0.53 | 84 | 1009.2 |
| 20260830172508 | 18 | 243 | 6.4 | 16.1 | 0.00 | 0.74 | 0.53 | 84 | 1009.1 |
| 20260830171515 | 18 | 267 | 4.8 | 20.9 | 0.00 | 0.74 | 0.53 | 83 | 1009.0 |
| 20260830170516 | 18 | 260 | 8.0 | 19.3 | 0.00 | 0.74 | 0.53 | 83 | 1009.1 |
| 20260830165521 | 18 | 309 | 6.4 | 17.7 | 0.00 | 0.74 | 0.53 | 82 | 1009.0 |
| 20260830164518 | 18 | 254 | 6.4 | 22.5 | 0.00 | 0.74 | 0.53 | 81 | 1008.9 |
| 20260830163518 | 19 | 288 | 11.3 | 27.4 | 0.00 | 0.74 | 0.53 | 80 | 1008.8 |
| 20260830162518 | 19 | 279 | 11.3 | 30.6 | 0.00 | 0.74 | 0.53 | 79 | 1008.8 |
| 20260830161516 | 19 | 270 | 11.3 | 30.6 | 0.00 | 0.74 | 0.53 | 79 | 1008.6 |
| 20260830160517 | 19 | 254 | 8.0 | 20.9 | 0.00 | 0.74 | 0.53 | 79 | 1008.6 |
| 20260830155516 | 19 | 311 | 9.7 | 22.5 | 0.00 | 0.79 | 0.53 | 79 | 1008.5 |
| 20260830155000 | 20 | 296 | 11.3 | 25.7 | 0.00 | 0.79 | 0.53 | 80 | 1008.4 |
| 20260830153518 | 20 | 286 | 9.7 | 20.9 | 0.00 | 0.89 | 0.53 | 80 | 1008.2 |
| 20260830151515 | 19 | 262 | 12.9 | 25.7 | 0.00 | 0.89 | 0.53 | 81 | 1008.1 |
| 20260830150953 | 20 | 277 | 9.7 | 27.4 | 0.00 | 0.89 | 0.53 | 79 | 1008.0 |
| 20260830145519 | 20 | 263 | 14.5 | 27.4 | 0.00 | 0.89 | 0.53 | 79 | 1007.9 |
| 20260830144519 | 20 | 259 | 11.3 | 27.4 | 0.00 | 0.89 | 0.53 | 79 | 1007.9 |
| 20260830143517 | 20 | 292 | 11.3 | 22.5 | 0.00 | 0.89 | 0.53 | 80 | 1007.6 |
| 20260830142516 | 20 | 333 | 9.7 | 22.5 | 0.00 | 0.89 | 0.53 | 75 | 1007.6 |
| 20260830140516 | 20 | 275 | 9.7 | 25.7 | 0.00 | 0.89 | 0.53 | 80 | 1007.2 |
| 20260830135516 | 20 | 11 | 12.9 | 32.2 | 0.00 | 0.89 | 0.53 | 80 | 1007.1 |
| 20260830134521 | 20 | 255 | 9.7 | 33.8 | 0.00 | 0.89 | 0.53 | 82 | 1007.0 |
| 20260830132515 | 19 | 305 | 14.5 | 22.5 | 0.00 | 0.89 | 0.53 | 84 | 1006.6 |
| 20260830131519 | 19 | 303 | 12.9 | 30.6 | 0.00 | 0.89 | 0.53 | 83 | 1006.5 |
| 20260830130953 | 20 | 319 | 14.5 | 27.4 | 0.00 | 0.89 | 0.53 | 83 | 1006.1 |
| 20260830130052 | 20 | 10 | 17.7 | 30.6 | 0.00 | 0.89 | 0.53 | 85 | 1005.9 |
| 20260830124515 | 20 | 275 | 19.3 | 35.4 | 0.00 | 0.89 | 0.53 | 86 | 1005.7 |